sat.trackr.live / text

‹ back to catalog

STARLINK-4810

NORAD 53869 · 2022-114BD

PAYLOAD ACTIVE UNKNOWN

§ Identity

Operator
Country
US
Launch date
2022-09-19
Launch site
AFETR
Launch vehicle
Mass (kg)
RCS (m²)

Purposes: comms

External: N2YO · Heavens-Above · Gunter

§ Orbital elements

Epoch: 2026-05-25T02:38:37.093920Z

Period
95.44 min
Inclination
53.2128°
Eccentricity
0.0001277
Mean motion
15.08833492 rev/d
Perigee alt
538.9 km
Apogee alt
540.6 km
Semi-major
6,917.9 km
B*
2.7742e-5
RAAN
290.7236°
Arg perigee
92.4895°
Mean anomaly
267.6243°
Rev number
20,479

§ Raw data

STARLINK-48101 53869U 22114BD  26145.11015155  .00000154  00000+0  27742-4 0  99932 53869  53.2128 290.7236 0001277  92.4895 267.6243 15.08833492204792

JSON: /api/v1/satellites/53869 · /tle

For live sub-satellite position, see the globe view (requires WebGL).

§ Visibility from observer

Set your observer location to see the next 7 days of passes ≥ 10°. The values pass through the URL so the page stays shareable.

No JS? Fill the form by hand. The geolocation button needs JavaScript.